Location: Caltech
(34.1382°N, 118.1253°W)
Time: 20:56:05
(UTC-07:00)

A-11 Canister half - All Passes

Search period start: 30 May 2016 00:00
Search period end: 09 June 2016 00:00
Orbit: 1516 x 1684 km, 47.2° (Epoch: 29 May)

Date Brightness Start Highest point End Pass type
(mag) Time Alt. Az. Time Alt. Az. Time Alt. Az.
30 May - 01:18:24 10° SSW 01:26:43 35° SE 01:34:50 10° ENE visible
30 May - 03:21:39 10° WSW 03:31:05 76° NW 03:40:23 10° NE visible
30 May - 05:28:38 10° WNW 05:37:11 39° N 05:45:42 10° ENE daylight
30 May - 07:35:28 10° NW 07:44:06 42° NNE 07:52:50 10° E daylight
30 May - 09:40:34 10° NW 09:49:54 88° NE 09:59:26 10° SE daylight
30 May - 11:46:37 10° WNW 11:54:01 27° SW 12:01:36 10° S daylight
31 May - 00:55:46 10° S 01:03:53 32° SE 01:11:48 10° ENE visible
31 May - 02:58:42 10° WSW 03:08:11 79° NW 03:17:29 10° NE visible
31 May - 05:05:35 10° W 05:14:10 39° NNW 05:22:44 10° NE visible
31 May - 07:12:30 10° NW 07:21:07 41° NNE 07:29:46 10° E daylight
31 May - 09:17:40 10° NW 09:27:00 84° NE 09:36:30 10° SE daylight
31 May - 11:23:33 10° WNW 11:31:11 29° SW 11:39:01 10° S daylight
01 Jun - 00:33:08 10° S 00:41:03 30° SE 00:48:46 10° ENE visible
01 Jun - 02:35:45 10° SW 02:45:17 83° NW 02:54:36 10° NE visible
01 Jun - 04:42:31 10° W 04:51:11 40° NNW 04:59:46 10° NE visible
01 Jun - 06:49:33 10° NW 06:58:07 40° NNE 07:06:43 10° E daylight
01 Jun - 08:54:47 10° NW 09:04:06 80° NE 09:13:34 10° ESE daylight
01 Jun - 11:00:31 10° WNW 11:08:22 32° SW 11:16:24 10° S daylight
02 Jun - 00:10:32 10° S 00:18:13 28° SE 00:25:43 10° ENE visible
02 Jun - 02:12:49 10° SW 02:22:22 87° NW 02:31:42 10° NE visible
02 Jun - 04:19:28 10° W 04:28:11 41° NNW 04:36:49 10° NE visible
02 Jun - 06:26:35 10° NW 06:35:08 39° N 06:43:40 10° ENE daylight
02 Jun - 08:31:54 10° NW 08:41:11 77° NNE 08:50:37 10° ESE daylight
02 Jun - 10:37:29 10° WNW 10:45:31 34° SW 10:53:45 10° S daylight
02 Jun - 23:47:58 10° S 23:55:23 26° SE 00:02:38 10° ENE visible
03 Jun - 01:49:54 10° SW 01:59:28 89° SE 02:08:49 10° NE visible
03 Jun - 03:56:24 10° W 04:05:12 42° NNW 04:13:53 10° NE visible
03 Jun - 06:03:37 10° WNW 06:12:07 38° N 06:20:37 10° ENE daylight
03 Jun - 08:09:00 10° NW 08:18:16 73° NNE 08:27:39 10° ESE daylight
03 Jun - 10:14:28 10° WNW 10:22:41 37° SW 10:31:06 10° SSE daylight
03 Jun - 23:25:26 10° S 23:32:33 24° SE 23:39:31 10° ENE visible
04 Jun - 01:26:58 10° SW 01:36:35 84° SE 01:45:56 10° NE visible
04 Jun - 03:33:21 10° W 03:42:13 44° NNW 03:50:58 10° NE visible
04 Jun - 05:40:38 10° WNW 05:49:07 38° N 05:57:35 10° ENE daylight
04 Jun - 07:46:07 10° NW 07:55:21 70° NNE 08:04:41 10° ESE daylight
04 Jun - 09:51:29 10° WNW 09:59:51 40° SW 10:08:24 10° SSE daylight
04 Jun - 23:02:57 10° S 23:09:44 22° SE 23:16:21 10° E visible
05 Jun - 01:04:04 10° SW 01:13:41 80° SE 01:23:01 10° NE visible
05 Jun - 03:10:17 10° W 03:19:14 45° NNW 03:28:02 10° NE visible
05 Jun - 05:17:39 10° WNW 05:26:07 37° N 05:34:32 10° ENE daylight
05 Jun - 07:23:13 10° NW 07:32:26 66° NNE 07:41:43 10° ESE daylight
05 Jun - 09:28:30 10° WNW 09:37:00 43° SW 09:45:41 10° SSE daylight
05 Jun - 22:40:31 10° SSE 22:46:54 20° SE 22:53:09 10° E visible
06 Jun - 00:41:12 10° SW 00:50:48 76° SE 01:00:08 10° ENE visible
06 Jun - 02:47:13 10° W 02:56:15 47° NNW 03:05:06 10° NE visible
06 Jun - 04:54:39 10° WNW 05:03:07 37° N 05:11:30 10° ENE visible
06 Jun - 07:00:19 10° NW 07:09:30 63° NNE 07:18:43 10° ESE daylight
06 Jun - 09:05:32 10° WNW 09:14:10 46° SW 09:22:58 10° SSE daylight
06 Jun - 22:18:08 10° SSE 22:24:05 18° SE 22:29:54 10° E visible
07 Jun - 00:18:19 10° SW 00:27:55 72° SE 00:37:13 10° ENE visible
07 Jun - 02:24:10 10° W 02:33:17 48° NNW 02:42:12 10° NE visible
07 Jun - 04:31:38 10° WNW 04:40:06 36° N 04:48:28 10° ENE visible
07 Jun - 06:37:25 10° NW 06:46:34 60° NNE 06:55:45 10° ESE daylight
07 Jun - 08:42:35 10° WNW 08:51:20 49° SW 09:00:13 10° SSE daylight
07 Jun - 21:55:50 10° SSE 22:01:16 16° SE 22:06:34 10° E visible
07 Jun - 23:55:27 10° SW 00:05:02 68° SE 00:14:19 10° ENE visible
08 Jun - 02:01:07 10° W 02:10:18 50° NNW 02:19:17 10° NE visible
08 Jun - 04:08:37 10° WNW 04:17:06 36° N 04:25:26 10° ENE visible
08 Jun - 06:14:30 10° NW 06:23:38 58° NNE 06:32:45 10° ESE daylight
08 Jun - 08:19:38 10° WNW 08:28:29 52° SW 08:37:27 10° SSE daylight
08 Jun - 21:33:39 10° SSE 21:38:26 15° ESE 21:43:09 10° E visible
08 Jun - 23:32:36 10° SW 23:42:09 64° SE 23:51:24 10° ENE visible
